ORBCOMM FM 6

Satellite information

Favourite Embed

Satellite Type and Status

PAYLOADIN ORBIT

Key statistics

Satellite ORBCOMM FM 6 at a glance.

Uptime

10058

Days in orbit

Revolutions

≈ 14.5

Per day

Orbit

LEO

Low Earth Orbit

Inclination

45.0

Latest

Satellite identification and parameters

Extended collection of information and parameters for ORBCOMM FM 6.

Object identification

Identified? True

Debris? False

Object name: ORBCOMM FM 6

International designator: 1997-084G

Object number (NORAD): 25118

Object ID (CCSDS): 25118

Country: ORBITAL TELECOMMUNICATIONS SATELLITE (GLOBALSTAR) (ORB)

Current information (Y/N): Y

RCS size: MEDIUM

Orbital parameters

Period: 99.577 minutes

Inclination: 45.0141 deg

SMA: 7116.485 km

Apoapsis: 740.302 km

Periapsis: 736.398 km

RAAN: 274.3198 deg

Eccentricy: 0.0002743

Argument of periapsis: 258.6243 deg

Mean anomaly: 252.3661 deg

Mean motion: 14.46120351 rev/day

Mean motion (dot): 0.00000877 rev/day2

B* drag term: 0.00028354 1/REarth

Two-line elements (TLE)

Creation date: July 6, 2025, 6:05 p.m.

Reference frame: TEME

Reference center: EARTH

Epoch: July 6, 2025, 3:36 p.m. UTC

TLE line 0: 0 ORBCOMM FM 6

TLE line 1: 1 25118U 97084G 25187.65023657 .00000877 00000-0 28354-3 0 9999

TLE line 2: 2 25118 45.0141 274.3198 0002743 258.6243 252.3661 14.46120351444345

Live tracking on map

Real-time ground track for satellite ORBCOMM FM 6.

In-orbit conjunctions

There are no conjunctions computed for ORBCOMM FM 6, at the moment. Check back to stay up to date, as we update our databases every day.

Go to all conjunctions

Associated space launch

ORBCOMM FM 6 was lifted into orbit during the mission ‘Pegasus XL HAPS | Orbcomm-A1 - A8’, on board a Pegasus XL HAPS space rocket.

The launch took place on Dec. 23, 1997, 7:11 p.m. from Wallops Flight Facility.

For more information about the launch, click the button.

Launch to space Pegasus XL HAPS | Orbcomm-A1 - A8
Pegasus XL HAPS | Orbcomm-A1 - A8

Agency: N/A

Status: Launch Successful

Launch date: Dec. 23, 1997, 7:11 p.m. UTC

Rocket: Pegasus XL HAPS

Launch pad: Wallops Flight Facility

Location: Air launch to orbit

...

Latest news about this satellite

There are no fresh news available about this satellite. Check back as we update our databases every day.


Newsletter sign-up

Weekly statistics, charts and insights to help you stay on top of the space industry.